Time,TemperatureF,DewpointF,PressureIn,WindDirection,WindDirectionDegrees,WindSpeedMPH,WindSpeedGustMPH,Humidity,HourlyPrecipIn,Conditions,Clouds,dailyrainin,SoftwareType,DateUTC
2013-02-01 00:00:00,44.5,43.2,30.35,SSE,158,1.1,1.1,95,0.00,RA,,0.00,WeatherDisplay:10.37,2013-02-01 08:00:00,
2013-02-01 00:05:00,44.5,43.2,30.35,SSE,158,2.3,2.3,95,0.00,RA,,0.00,WeatherDisplay:10.37,2013-02-01 08:05:00,
2013-02-01 00:10:00,44.5,43.2,30.35,SSE,158,0.0,0.0,95,0.00,OVC,,0.00,WeatherDisplay:10.37,2013-02-01 08:10:00,
2013-02-01 00:15:00,44.4,43.1,30.35,SSE,158,1.1,1.1,95,0.00,OVC,,0.00,WeatherDisplay:10.37,2013-02-01 08:15:00,
2013-02-01 00:20:00,44.5,43.4,30.35,SSE,158,0.0,0.0,96,0.00,OVC,,0.00,WeatherDisplay:10.37,2013-02-01 08:20:00,
2013-02-01 00:25:00,44.4,43.3,30.35,SSE,158,0.0,0.0,96,0.00,OVC,,0.00,WeatherDisplay:10.37,2013-02-01 08:25:00,
2013-02-01 00:30:00,44.4,43.3,30.35,SSE,158,0.0,0.0,96,0.00,OVC,,0.00,WeatherDisplay:10.37,2013-02-01 08:30:00,
2013-02-01 00:35:00,44.4,43.3,30.35,SSE,158,0.0,0.0,96,0.00,OVC,,0.00,WeatherDisplay:10.37,2013-02-01 08:35:00,
2013-02-01 00:40:00,44.3,43.2,30.35,SSE,158,0.0,0.0,96,0.00,OVC,,0.00,WeatherDisplay:10.37,2013-02-01 08:40:00,
2013-02-01 00:45:00,44.3,43.2,30.35,SSE,158,0.0,0.0,96,0.00,OVC,,0.00,WeatherDisplay:10.37,2013-02-01 08:45:00,
2013-02-01 00:50:00,44.3,43.2,30.35,SSE,158,0.0,0.0,96,0.00,OVC,,0.00,WeatherDisplay:10.37,2013-02-01 08:50:00,
2013-02-01 00:55:00,44.3,43.2,30.35,SSE,158,0.0,0.0,96,0.00,OVC,,0.00,WeatherDisplay:10.37,2013-02-01 08:55:00,
2013-02-01 01:00:00,44.3,43.2,30.35,SSE,158,0.0,0.0,96,0.00,OVC,,0.00,WeatherDisplay:10.37,2013-02-01 09:00:00,
2013-02-01 01:05:00,44.2,43.1,30.35,SSE,158,0.0,0.0,96,0.00,OVC,,0.00,WeatherDisplay:10.37,2013-02-01 09:05:00,
2013-02-01 01:10:00,44.2,43.1,30.35,SSE,158,0.0,0.0,96,0.00,OVC,,0.00,WeatherDisplay:10.37,2013-02-01 09:10:00,
2013-02-01 01:15:00,44.2,43.1,30.35,SSE,158,0.0,0.0,96,0.00,OVC,,0.00,WeatherDisplay:10.37,2013-02-01 09:15:00,
2013-02-01 01:20:00,44.1,43.0,30.35,SSE,158,0.0,0.0,96,0.00,OVC,,0.00,WeatherDisplay:10.37,2013-02-01 09:20:00,
2013-02-01 01:25:00,44.0,42.7,30.35,SSE,158,0.0,0.0,95,0.00,OVC,,0.00,WeatherDisplay:10.37,2013-02-01 09:25:00,
2013-02-01 01:30:00,44.0,42.7,30.35,SSE,158,0.0,0.0,95,0.00,OVC,,0.00,WeatherDisplay:10.37,2013-02-01 09:30:00,
2013-02-01 01:35:00,44.0,42.7,30.35,SSE,158,0.0,0.0,95,0.00,OVC,,0.00,WeatherDisplay:10.37,2013-02-01 09:35:00,
2013-02-01 01:40:00,44.0,42.7,30.35,SSE,158,0.0,0.0,95,0.00,OVC,,0.00,WeatherDisplay:10.37,2013-02-01 09:40:00,
2013-02-01 01:45:00,44.0,42.7,30.35,SSE,158,1.0,1.0,95,0.00,OVC,,0.00,WeatherDisplay:10.37,2013-02-01 09:45:00,
2013-02-01 01:50:00,44.0,42.7,30.35,SSE,158,0.0,0.0,95,0.00,OVC,,0.00,WeatherDisplay:10.37,2013-02-01 09:50:00,
2013-02-01 01:55:00,44.0,42.7,30.36,SSE,158,0.0,0.0,95,0.00,OVC,,0.00,WeatherDisplay:10.37,2013-02-01 09:55:00,
2013-02-01 02:00:00,44.0,42.7,30.35,SSE,158,0.0,0.0,95,0.00,OVC,,0.00,WeatherDisplay:10.37,2013-02-01 10:00:00,
2013-02-01 02:05:00,44.0,42.7,30.35,SSE,158,0.0,0.0,95,0.00,OVC,,0.00,WeatherDisplay:10.37,2013-02-01 10:05:00,
2013-02-01 02:10:00,43.9,42.8,30.35,SSE,158,0.0,0.0,96,0.00,OVC,,0.00,WeatherDisplay:10.37,2013-02-01 10:10:00,
2013-02-01 02:15:00,43.8,42.7,30.35,SSE,158,0.0,0.0,96,0.00,OVC,,0.00,WeatherDisplay:10.37,2013-02-01 10:15:00,
2013-02-01 02:20:00,43.8,42.7,30.35,SSE,158,0.0,0.0,96,0.00,OVC,,0.00,WeatherDisplay:10.37,2013-02-01 10:20:00,
2013-02-01 02:25:00,43.8,42.7,30.35,SSE,158,0.0,0.0,96,0.00,OVC,,0.00,WeatherDisplay:10.37,2013-02-01 10:25:00,
2013-02-01 02:30:00,43.8,42.7,30.35,SSE,158,0.0,0.0,96,0.00,OVC,,0.00,WeatherDisplay:10.37,2013-02-01 10:30:00,
2013-02-01 02:35:00,43.7,42.6,30.35,SSE,158,0.0,0.0,96,0.00,OVC,,0.00,WeatherDisplay:10.37,2013-02-01 10:35:00,
2013-02-01 02:40:00,43.6,42.5,30.34,ENE,60,3.0,3.0,96,0.00,OVC,,0.00,WeatherDisplay:10.37,2013-02-01 10:40:00,
2013-02-01 02:45:00,43.6,42.3,30.34,ENE,68,3.5,3.5,95,0.00,OVC,,0.00,WeatherDisplay:10.37,2013-02-01 10:45:00,
2013-02-01 02:50:00,43.4,42.1,30.34,ENE,67,1.1,1.1,95,0.00,OVC,,0.00,WeatherDisplay:10.37,2013-02-01 10:50:00,
2013-02-01 02:55:00,43.3,42.0,30.34,ENE,67,1.1,0.0,95,0.00,OVC,,0.00,WeatherDisplay:10.37,2013-02-01 10:55:00,
2013-02-01 03:00:00,43.2,42.1,30.34,ENE,67,0.0,0.0,96,0.00,OVC,,0.00,WeatherDisplay:10.37,2013-02-01 11:00:00,
2013-02-01 03:05:00,43.2,42.1,30.34,NE,36,2.3,2.3,96,0.00,OVC,,0.00,WeatherDisplay:10.37,2013-02-01 11:05:00,
2013-02-01 03:10:00,43.3,42.2,30.34,NE,36,0.0,0.0,96,0.00,OVC,,0.00,WeatherDisplay:10.37,2013-02-01 11:10:00,
2013-02-01 03:15:00,43.2,42.1,30.34,NE,36,0.0,0.0,96,0.00,OVC,,0.00,WeatherDisplay:10.37,2013-02-01 11:15:00,
2013-02-01 03:20:00,43.2,42.1,30.34,NE,36,1.1,0.0,96,0.00,OVC,,0.00,WeatherDisplay:10.37,2013-02-01 11:20:00,
2013-02-01 03:25:00,43.2,42.1,30.34,NE,36,1.1,0.0,96,0.00,OVC,,0.00,WeatherDisplay:10.37,2013-02-01 11:25:00,
2013-02-01 03:30:00,43.2,42.1,30.34,NE,36,0.0,0.0,96,0.00,OVC,,0.00,WeatherDisplay:10.37,2013-02-01 11:30:00,
2013-02-01 03:35:00,43.1,42.0,30.34,NE,36,0.0,0.0,96,0.00,OVC,,0.00,WeatherDisplay:10.37,2013-02-01 11:35:00,
2013-02-01 03:40:00,42.9,41.6,30.34,NE,36,0.0,0.0,95,0.00,OVC,,0.00,WeatherDisplay:10.37,2013-02-01 11:40:00,
2013-02-01 03:45:00,42.7,41.4,30.34,NE,36,0.0,0.0,95,0.00,OVC,,0.00,WeatherDisplay:10.37,2013-02-01 11:45:00,
2013-02-01 03:50:00,42.7,41.4,30.34,NE,36,0.0,0.0,95,0.00,OVC,,0.00,WeatherDisplay:10.37,2013-02-01 11:50:00,
2013-02-01 03:55:00,42.6,41.3,30.34,NE,36,0.0,0.0,95,0.00,OVC,,0.00,WeatherDisplay:10.37,2013-02-01 11:55:00,
2013-02-01 04:00:00,42.6,41.5,30.34,NE,36,0.0,0.0,96,0.00,OVC,,0.00,WeatherDisplay:10.37,2013-02-01 12:00:00,
2013-02-01 04:05:00,42.4,41.3,30.34,NE,36,0.0,0.0,96,0.00,OVC,,0.00,WeatherDisplay:10.37,2013-02-01 12:05:00,
2013-02-01 04:10:00,42.3,41.0,30.35,NE,36,1.1,1.1,95,0.00,OVC,,0.00,WeatherDisplay:10.37,2013-02-01 12:10:00,
2013-02-01 04:15:00,42.1,40.8,30.35,NE,36,2.3,2.3,95,0.00,OVC,,0.00,WeatherDisplay:10.37,2013-02-01 12:15:00,
2013-02-01 04:20:00,41.8,40.7,30.35,NE,36,2.3,2.3,96,0.00,OVC,,0.00,WeatherDisplay:10.37,2013-02-01 12:20:00,
2013-02-01 04:25:00,41.5,40.2,30.35,NE,36,2.3,2.3,95,0.00,OVC,,0.00,WeatherDisplay:10.37,2013-02-01 12:25:00,
2013-02-01 04:30:00,41.3,40.2,30.35,NE,36,2.3,2.3,96,0.00,OVC,,0.00,WeatherDisplay:10.37,2013-02-01 12:30:00,
2013-02-01 04:35:00,41.2,40.1,30.35,NE,36,1.1,1.1,96,0.00,OVC,,0.00,WeatherDisplay:10.37,2013-02-01 12:35:00,
2013-02-01 04:40:00,41.1,39.8,30.35,NE,36,0.0,0.0,95,0.00,OVC,,0.00,WeatherDisplay:10.37,2013-02-01 12:40:00,
2013-02-01 04:45:00,41.1,39.8,30.35,NE,36,0.0,0.0,95,0.00,OVC,,0.00,WeatherDisplay:10.37,2013-02-01 12:45:00,
2013-02-01 04:50:00,41.1,39.8,30.35,NE,36,0.0,0.0,95,0.00,OVC,,0.00,WeatherDisplay:10.37,2013-02-01 12:50:00,
2013-02-01 04:55:00,41.3,40.2,30.35,NE,36,0.0,0.0,96,0.00,OVC,,0.00,WeatherDisplay:10.37,2013-02-01 12:55:00,
2013-02-01 05:00:00,41.3,40.2,30.35,NE,36,0.0,0.0,96,0.00,OVC,,0.00,WeatherDisplay:10.37,2013-02-01 13:00:00,
2013-02-01 05:05:00,41.4,40.3,30.35,NE,36,0.0,0.0,96,0.00,OVC,,0.00,WeatherDisplay:10.37,2013-02-01 13:05:00,
2013-02-01 05:10:00,41.4,40.3,30.35,NE,36,0.0,0.0,96,0.00,OVC,,0.00,WeatherDisplay:10.37,2013-02-01 13:10:00,
2013-02-01 05:15:00,41.3,40.2,30.35,NE,36,1.1,1.1,96,0.00,OVC,,0.00,WeatherDisplay:10.37,2013-02-01 13:15:00,
2013-02-01 05:20:00,41.2,40.1,30.35,NE,36,1.1,0.0,96,0.00,OVC,,0.00,WeatherDisplay:10.37,2013-02-01 13:20:00,
2013-02-01 05:25:00,41.1,39.8,30.35,NE,36,0.0,0.0,95,0.00,OVC,,0.00,WeatherDisplay:10.37,2013-02-01 13:25:00,
2013-02-01 05:30:00,41.1,39.8,30.35,NE,36,0.0,0.0,95,0.00,OVC,,0.00,WeatherDisplay:10.37,2013-02-01 13:30:00,
2013-02-01 05:35:00,41.1,39.8,30.34,NE,36,0.0,0.0,95,0.00,OVC,,0.00,WeatherDisplay:10.37,2013-02-01 13:35:00,
2013-02-01 05:40:00,41.1,39.8,30.34,NE,36,0.0,0.0,95,0.00,OVC,,0.00,WeatherDisplay:10.37,2013-02-01 13:40:00,
2013-02-01 05:45:00,41.1,39.8,30.34,NE,36,0.0,0.0,95,0.00,OVC,,0.00,WeatherDisplay:10.37,2013-02-01 13:45:00,
2013-02-01 05:50:00,41.1,39.8,30.35,NE,36,0.0,0.0,95,0.00,OVC,,0.00,WeatherDisplay:10.37,2013-02-01 13:50:00,
2013-02-01 05:55:00,41.2,40.1,30.34,NE,36,0.0,0.0,96,0.00,OVC,,0.00,WeatherDisplay:10.37,2013-02-01 13:55:00,
2013-02-01 06:01:00,41.3,40.2,30.35,NE,36,0.0,0.0,96,0.00,OVC,,0.00,WeatherDisplay:10.37,2013-02-01 14:01:00,
2013-02-01 06:06:00,41.5,40.2,30.34,NE,36,0.0,0.0,95,0.00,OVC,,0.00,WeatherDisplay:10.37,2013-02-01 14:06:00,
2013-02-01 06:11:00,41.7,40.4,30.34,NE,36,0.0,0.0,95,0.00,OVC,,0.00,WeatherDisplay:10.37,2013-02-01 14:11:00,
2013-02-01 06:16:00,41.9,40.8,30.34,NE,36,0.0,0.0,96,0.00,OVC,,0.00,WeatherDisplay:10.37,2013-02-01 14:16:00,
2013-02-01 06:21:00,42.1,41.0,30.34,NE,36,0.0,0.0,96,0.00,OVC,,0.00,WeatherDisplay:10.37,2013-02-01 14:21:00,
2013-02-01 06:26:00,42.2,41.1,30.34,NE,36,0.0,0.0,96,0.00,OVC,,0.00,WeatherDisplay:10.37,2013-02-01 14:26:00,
2013-02-01 06:31:00,42.2,41.1,30.34,NE,36,0.0,0.0,96,0.00,OVC,,0.01,WeatherDisplay:10.37,2013-02-01 14:31:00,
2013-02-01 06:36:00,42.3,41.2,30.34,NE,36,0.0,0.0,96,0.01,RA,,0.01,WeatherDisplay:10.37,2013-02-01 14:36:00,
2013-02-01 06:41:00,42.3,41.2,30.34,NE,36,0.0,0.0,96,0.01,RA,,0.01,WeatherDisplay:10.37,2013-02-01 14:41:00,
2013-02-01 06:46:00,42.3,41.2,30.34,NE,36,0.0,0.0,96,0.01,OVC,,0.01,WeatherDisplay:10.37,2013-02-01 14:46:00,
2013-02-01 06:51:00,42.3,41.2,30.34,NE,36,0.0,0.0,96,0.01,OVC,,0.01,WeatherDisplay:10.37,2013-02-01 14:51:00,
2013-02-01 06:56:00,42.4,41.3,30.33,NE,36,0.0,0.0,96,0.01,OVC,,0.01,WeatherDisplay:10.37,2013-02-01 14:56:00,
2013-02-01 07:01:00,42.4,41.3,30.34,NE,36,0.0,0.0,96,0.01,OVC,,0.01,WeatherDisplay:10.37,2013-02-01 15:01:00,
2013-02-01 07:06:00,42.5,41.4,30.33,NE,36,0.0,0.0,96,0.01,OVC,,0.01,WeatherDisplay:10.37,2013-02-01 15:06:00,
2013-02-01 07:11:00,42.5,41.4,30.33,NE,36,0.0,0.0,96,0.01,OVC,,0.01,WeatherDisplay:10.37,2013-02-01 15:11:00,
2013-02-01 07:16:00,42.5,41.4,30.33,NE,36,0.0,0.0,96,0.01,OVC,,0.01,WeatherDisplay:10.37,2013-02-01 15:16:00,
2013-02-01 07:21:00,42.5,41.4,30.33,NE,36,0.0,0.0,96,0.01,OVC,,0.01,WeatherDisplay:10.37,2013-02-01 15:21:00,
2013-02-01 07:26:00,42.5,41.4,30.33,NE,36,0.0,0.0,96,0.01,OVC,,0.01,WeatherDisplay:10.37,2013-02-01 15:26:00,
2013-02-01 07:31:00,42.4,42.4,30.33,NE,36,0.0,0.0,100,0.01,OVC,,0.01,WeatherDisplay:10.37,2013-02-01 15:31:00,
2013-02-01 07:36:00,42.5,42.5,30.33,NE,36,0.0,0.0,100,0.00,OVC,,0.01,WeatherDisplay:10.37,2013-02-01 15:36:00,
2013-02-01 07:41:00,42.4,41.3,30.33,NE,36,0.0,0.0,96,0.00,OVC,,0.01,WeatherDisplay:10.37,2013-02-01 15:41:00,
2013-02-01 07:46:00,42.4,41.3,30.33,NE,36,0.0,0.0,96,0.00,OVC,,0.01,WeatherDisplay:10.37,2013-02-01 15:46:00,
2013-02-01 07:51:00,42.3,41.2,30.34,NE,36,0.0,0.0,96,0.00,OVC,,0.01,WeatherDisplay:10.37,2013-02-01 15:51:00,
2013-02-01 07:56:00,42.4,41.3,30.34,NE,36,0.0,0.0,96,0.00,OVC,,0.01,WeatherDisplay:10.37,2013-02-01 15:56:00,
2013-02-01 08:01:00,42.4,41.3,30.34,NE,36,0.0,0.0,96,0.00,OVC,,0.01,WeatherDisplay:10.37,2013-02-01 16:01:00,
2013-02-01 08:06:00,42.4,41.3,30.34,NE,36,0.0,0.0,96,0.00,OVC,,0.01,WeatherDisplay:10.37,2013-02-01 16:06:00,
2013-02-01 08:11:00,42.4,41.3,30.34,NE,36,0.0,0.0,96,0.00,OVC,,0.01,WeatherDisplay:10.37,2013-02-01 16:11:00,
2013-02-01 08:16:00,42.4,41.3,30.35,NE,36,0.0,0.0,96,0.00,OVC,,0.01,WeatherDisplay:10.37,2013-02-01 16:16:00,
2013-02-01 08:21:00,42.4,41.3,30.35,NE,36,0.0,0.0,96,0.00,OVC,,0.01,WeatherDisplay:10.37,2013-02-01 16:21:00,
2013-02-01 08:26:00,42.4,42.4,30.35,NE,36,0.0,0.0,100,0.00,OVC,,0.01,WeatherDisplay:10.37,2013-02-01 16:26:00,
2013-02-01 08:31:00,42.5,41.4,30.35,NE,36,0.0,0.0,96,0.00,OVC,,0.01,WeatherDisplay:10.37,2013-02-01 16:31:00,
2013-02-01 08:36:00,42.6,41.5,30.35,NE,36,0.0,0.0,96,0.00,OVC,,0.01,WeatherDisplay:10.37,2013-02-01 16:36:00,
2013-02-01 08:41:00,42.7,41.6,30.35,NE,36,0.0,0.0,96,0.00,OVC,,0.01,WeatherDisplay:10.37,2013-02-01 16:41:00,
2013-02-01 08:46:00,42.7,41.6,30.35,ENE,76,0.0,0.0,96,0.00,OVC,,0.01,WeatherDisplay:10.37,2013-02-01 16:46:00,
2013-02-01 08:51:00,42.8,41.7,30.35,ENE,76,0.0,0.0,96,0.00,OVC,,0.01,WeatherDisplay:10.37,2013-02-01 16:51:00,
2013-02-01 08:56:00,42.9,41.8,30.35,ENE,76,0.0,0.0,96,0.00,OVC,,0.01,WeatherDisplay:10.37,2013-02-01 16:56:00,
2013-02-01 09:01:00,43.0,41.9,30.35,ENE,76,1.1,1.1,96,0.00,OVC,,0.01,WeatherDisplay:10.37,2013-02-01 17:01:00,
2013-02-01 09:06:00,42.8,41.7,30.35,ENE,76,2.3,2.3,96,0.00,OVC,,0.01,WeatherDisplay:10.37,2013-02-01 17:06:00,
2013-02-01 09:11:00,42.6,41.5,30.35,ENE,73,3.5,3.5,96,0.00,OVC,,0.01,WeatherDisplay:10.37,2013-02-01 17:11:00,
2013-02-01 09:16:00,42.5,41.4,30.36,ENE,73,0.0,0.0,96,0.00,OVC,,0.01,WeatherDisplay:10.37,2013-02-01 17:16:00,
2013-02-01 09:21:00,42.6,41.5,30.36,ENE,73,0.0,0.0,96,0.00,OVC,,0.01,WeatherDisplay:10.37,2013-02-01 17:21:00,
2013-02-01 09:26:00,42.7,41.6,30.36,ENE,73,0.0,0.0,96,0.00,OVC,,0.01,WeatherDisplay:10.37,2013-02-01 17:26:00,
2013-02-01 09:31:00,42.8,41.7,30.36,ENE,73,0.0,0.0,96,0.00,OVC,,0.01,WeatherDisplay:10.37,2013-02-01 17:31:00,
2013-02-01 09:36:00,42.9,41.8,30.36,ENE,73,0.0,0.0,96,0.00,OVC,,0.01,WeatherDisplay:10.37,2013-02-01 17:36:00,
2013-02-01 09:41:00,43.1,42.0,30.36,East,88,0.0,0.0,96,0.00,OVC,,0.01,WeatherDisplay:10.37,2013-02-01 17:41:00,
2013-02-01 09:46:00,43.3,42.2,30.36,East,88,1.1,0.0,96,0.00,OVC,,0.01,WeatherDisplay:10.37,2013-02-01 17:46:00,
2013-02-01 09:51:00,43.6,42.5,30.36,East,88,0.0,0.0,96,0.00,OVC,,0.01,WeatherDisplay:10.37,2013-02-01 17:51:00,
2013-02-01 09:56:00,44.2,43.1,30.36,NE,54,0.0,0.0,96,0.00,OVC,,0.01,WeatherDisplay:10.37,2013-02-01 17:56:00,
2013-02-01 10:01:00,44.4,43.3,30.36,NE,49,1.1,1.1,96,0.00,OVC,,0.01,WeatherDisplay:10.37,2013-02-01 18:01:00,
2013-02-01 10:06:00,44.6,43.5,30.36,NW,309,1.1,1.1,96,0.00,OVC,,0.01,WeatherDisplay:10.37,2013-02-01 18:06:00,
2013-02-01 10:11:00,44.9,43.8,30.36,NW,306,0.0,0.0,96,0.00,OVC,,0.01,WeatherDisplay:10.37,2013-02-01 18:11:00,
2013-02-01 10:16:00,45.3,44.2,30.36,NW,306,1.1,0.0,96,0.00,OVC,,0.01,WeatherDisplay:10.37,2013-02-01 18:16:00,
2013-02-01 10:21:00,45.5,44.4,30.36,NW,306,0.0,0.0,96,0.00,OVC,,0.01,WeatherDisplay:10.37,2013-02-01 18:21:00,
2013-02-01 10:26:00,45.6,44.5,30.36,NW,306,1.1,0.0,96,0.00,OVC,,0.01,WeatherDisplay:10.37,2013-02-01 18:26:00,
2013-02-01 10:31:00,46.0,44.9,30.36,NNW,336,3.5,3.5,96,0.00,OVC,,0.01,WeatherDisplay:10.37,2013-02-01 18:31:00,
2013-02-01 10:36:00,45.9,44.8,30.36,NW,315,3.5,3.5,96,0.00,OVC,,0.01,WeatherDisplay:10.37,2013-02-01 18:36:00,
2013-02-01 10:41:00,45.6,44.5,30.36,NW,310,3.5,3.5,96,0.00,OVC,,0.01,WeatherDisplay:10.37,2013-02-01 18:41:00,
2013-02-01 10:46:00,45.3,44.2,30.36,NW,310,1.1,1.1,96,0.00,OVC,,0.01,WeatherDisplay:10.37,2013-02-01 18:46:00,
2013-02-01 10:51:00,45.3,44.2,30.37,NW,310,1.1,0.0,96,0.00,OVC,,0.01,WeatherDisplay:10.37,2013-02-01 18:51:00,
2013-02-01 10:56:00,45.4,44.3,30.37,NW,310,1.1,1.1,96,0.00,OVC,,0.01,WeatherDisplay:10.37,2013-02-01 18:56:00,
2013-02-01 11:01:00,45.5,44.4,30.37,NW,310,0.0,0.0,96,0.00,OVC,,0.01,WeatherDisplay:10.37,2013-02-01 19:01:00,
2013-02-01 11:06:00,45.6,44.5,30.37,NW,310,0.0,0.0,96,0.00,OVC,,0.01,WeatherDisplay:10.37,2013-02-01 19:06:00,
2013-02-01 11:11:00,45.7,44.6,30.36,NW,310,0.0,0.0,96,0.00,OVC,,0.01,WeatherDisplay:10.37,2013-02-01 19:11:00,
2013-02-01 11:16:00,45.6,44.5,30.36,NW,310,0.0,0.0,96,0.00,OVC,,0.01,WeatherDisplay:10.37,2013-02-01 19:16:00,
2013-02-01 11:21:00,45.6,44.5,30.36,NW,310,1.1,1.1,96,0.00,OVC,,0.01,WeatherDisplay:10.37,2013-02-01 19:21:00,
2013-02-01 11:26:00,45.8,44.7,30.36,NW,310,1.1,1.1,96,0.00,OVC,,0.01,WeatherDisplay:10.37,2013-02-01 19:26:00,
2013-02-01 11:31:00,46.1,45.0,30.36,NW,310,2.3,2.3,96,0.00,OVC,,0.01,WeatherDisplay:10.37,2013-02-01 19:31:00,
2013-02-01 11:36:00,46.3,45.2,30.36,WNW,302,4.0,4.0,96,0.00,OVC,,0.01,WeatherDisplay:10.37,2013-02-01 19:36:00,
2013-02-01 11:41:00,45.7,44.6,30.36,NW,304,3.5,3.5,96,0.00,OVC,,0.01,WeatherDisplay:10.37,2013-02-01 19:41:00,
2013-02-01 11:46:00,45.7,44.6,30.35,NW,304,3.5,3.5,96,0.00,OVC,,0.01,WeatherDisplay:10.37,2013-02-01 19:46:00,
2013-02-01 11:51:00,45.5,44.4,30.35,NW,304,2.3,2.3,96,0.00,OVC,,0.01,WeatherDisplay:10.37,2013-02-01 19:51:00,
2013-02-01 11:56:00,45.4,44.1,30.35,NW,304,3.5,3.5,95,0.00,OVC,,0.01,WeatherDisplay:10.37,2013-02-01 19:56:00,
2013-02-01 12:01:00,45.4,44.1,30.35,NW,304,3.5,3.5,95,0.00,OVC,,0.01,WeatherDisplay:10.37,2013-02-01 20:01:00,
2013-02-01 12:06:00,45.4,44.1,30.35,NW,304,1.1,0.0,95,0.00,OVC,,0.01,WeatherDisplay:10.37,2013-02-01 20:06:00,
2013-02-01 12:11:00,45.5,44.2,30.35,NW,304,3.5,3.5,95,0.00,OVC,,0.01,WeatherDisplay:10.37,2013-02-01 20:11:00,
2013-02-01 12:16:00,45.6,44.0,30.35,NW,304,3.5,3.5,94,0.00,OVC,,0.01,WeatherDisplay:10.37,2013-02-01 20:16:00,
2013-02-01 12:21:00,45.5,43.9,30.34,NW,304,2.3,2.3,94,0.00,OVC,,0.01,WeatherDisplay:10.37,2013-02-01 20:21:00,
2013-02-01 12:26:00,45.6,44.0,30.34,SSW,202,2.3,2.3,94,0.00,OVC,,0.01,WeatherDisplay:10.37,2013-02-01 20:26:00,
2013-02-01 12:31:00,46.3,44.9,30.34,SSW,202,3.5,3.5,95,0.00,OVC,,0.01,WeatherDisplay:10.37,2013-02-01 20:31:00,
2013-02-01 12:36:00,46.9,45.5,30.34,NW,318,5.8,5.8,95,0.00,OVC,,0.01,WeatherDisplay:10.37,2013-02-01 20:36:00,
2013-02-01 12:41:00,46.8,45.2,30.34,NW,308,3.5,3.5,94,0.00,OVC,,0.01,WeatherDisplay:10.37,2013-02-01 20:41:00,
2013-02-01 12:46:00,46.7,45.1,30.34,NW,308,3.5,3.5,94,0.00,OVC,,0.01,WeatherDisplay:10.37,2013-02-01 20:46:00,
2013-02-01 12:51:00,46.6,44.7,30.34,WNW,297,3.5,3.5,93,0.00,OVC,,0.01,WeatherDisplay:10.37,2013-02-01 20:51:00,
2013-02-01 12:56:00,46.6,45.0,30.33,WNW,297,3.0,3.0,94,0.00,OVC,,0.01,WeatherDisplay:10.37,2013-02-01 20:56:00,
2013-02-01 13:01:00,47.1,45.5,30.33,WNW,297,1.1,1.1,94,0.00,OVC,,0.01,WeatherDisplay:10.37,2013-02-01 21:01:00,
2013-02-01 13:06:00,47.9,46.3,30.33,WNW,300,3.0,3.0,94,0.00,OVC,,0.01,WeatherDisplay:10.37,2013-02-01 21:06:00,
2013-02-01 13:11:00,48.2,46.3,30.32,NW,311,3.5,3.5,93,0.00,OVC,,0.01,WeatherDisplay:10.37,2013-02-01 21:11:00,
2013-02-01 13:16:00,48.3,46.4,30.32,NNW,347,5.8,5.8,93,0.00,OVC,,0.01,WeatherDisplay:10.37,2013-02-01 21:16:00,
2013-02-01 13:21:00,48.3,46.1,30.32,NW,324,5.8,5.8,92,0.00,OVC,,0.01,WeatherDisplay:10.37,2013-02-01 21:21:00,
2013-02-01 13:26:00,48.6,46.4,30.32,WNW,295,4.6,4.6,92,0.00,OVC,,0.01,WeatherDisplay:10.37,2013-02-01 21:26:00,
2013-02-01 13:31:00,48.5,46.0,30.32,WNW,302,5.0,5.0,91,0.00,OVC,,0.01,WeatherDisplay:10.37,2013-02-01 21:31:00,
2013-02-01 13:36:00,48.1,45.6,30.32,WNW,301,5.0,5.0,91,0.00,OVC,,0.01,WeatherDisplay:10.37,2013-02-01 21:36:00,
2013-02-01 13:41:00,48.0,45.5,30.32,NW,307,4.6,4.6,91,0.00,OVC,,0.01,WeatherDisplay:10.37,2013-02-01 21:41:00,
2013-02-01 13:47:00,48.1,45.6,30.31,NW,317,6.0,6.0,91,0.00,OVC,,0.01,WeatherDisplay:10.37,2013-02-01 21:47:00,
2013-02-01 13:52:00,48.2,45.7,30.31,WNW,294,5.8,5.8,91,0.00,OVC,,0.01,WeatherDisplay:10.37,2013-02-01 21:52:00,
2013-02-01 13:57:00,48.4,45.9,30.31,WNW,302,3.5,3.5,91,0.00,OVC,,0.01,WeatherDisplay:10.37,2013-02-01 21:57:00,
2013-02-01 14:02:00,48.6,45.8,30.31,WNW,298,3.5,3.5,90,0.00,OVC,,0.01,WeatherDisplay:10.37,2013-02-01 22:02:00,
2013-02-01 14:07:00,48.9,46.1,30.30,NW,304,5.8,5.8,90,0.00,OVC,,0.01,WeatherDisplay:10.37,2013-02-01 22:07:00,
2013-02-01 14:12:00,48.8,45.7,30.30,NW,304,5.0,5.0,89,0.00,OVC,,0.01,WeatherDisplay:10.37,2013-02-01 22:12:00,
2013-02-01 14:17:00,48.7,45.6,30.30,NW,317,5.8,5.8,89,0.00,OVC,,0.01,WeatherDisplay:10.37,2013-02-01 22:17:00,
2013-02-01 14:22:00,48.6,45.5,30.30,NW,304,10.4,10.4,89,0.00,OVC,,0.01,WeatherDisplay:10.37,2013-02-01 22:22:00,
2013-02-01 14:27:00,48.7,45.9,30.30,WNW,286,4.6,4.6,90,0.00,OVC,,0.01,WeatherDisplay:10.37,2013-02-01 22:27:00,
2013-02-01 14:32:00,49.0,45.9,30.30,West,273,10.0,10.0,89,0.00,OVC,,0.01,WeatherDisplay:10.37,2013-02-01 22:32:00,
2013-02-01 14:37:00,49.3,46.2,30.30,NW,304,4.6,4.6,89,0.00,OVC,,0.01,WeatherDisplay:10.37,2013-02-01 22:37:00,
2013-02-01 14:42:00,49.6,46.5,30.30,WNW,296,3.5,3.5,89,0.00,OVC,,0.01,WeatherDisplay:10.37,2013-02-01 22:42:00,
2013-02-01 14:47:00,49.8,46.4,30.30,WNW,293,4.6,4.6,88,0.00,OVC,,0.01,WeatherDisplay:10.37,2013-02-01 22:47:00,
2013-02-01 14:52:00,49.9,46.5,30.30,WNW,292,5.8,5.8,88,0.00,OVC,,0.01,WeatherDisplay:10.37,2013-02-01 22:52:00,
2013-02-01 14:57:00,49.7,46.0,30.30,NW,305,9.2,9.2,87,0.00,OVC,,0.01,WeatherDisplay:10.37,2013-02-01 22:57:00,
2013-02-01 15:02:00,49.4,46.0,30.30,WNW,302,4.6,4.6,88,0.00,OVC,,0.01,WeatherDisplay:10.37,2013-02-01 23:02:00,
2013-02-01 15:07:00,49.3,45.9,30.30,NW,309,11.5,11.5,88,0.00,OVC,,0.01,WeatherDisplay:10.37,2013-02-01 23:07:00,
2013-02-01 15:12:00,49.2,45.8,30.29,WNW,288,5.8,5.8,88,0.00,OVC,,0.01,WeatherDisplay:10.37,2013-02-01 23:12:00,
2013-02-01 15:17:00,49.1,46.0,30.29,WNW,300,4.6,4.6,89,0.00,OVC,,0.01,WeatherDisplay:10.37,2013-02-01 23:17:00,
2013-02-01 15:22:00,49.1,46.0,30.29,NW,306,5.8,5.8,89,0.00,OVC,,0.01,WeatherDisplay:10.37,2013-02-01 23:22:00,
2013-02-01 15:27:00,49.2,46.1,30.29,WNW,296,4.6,4.6,89,0.00,OVC,,0.01,WeatherDisplay:10.37,2013-02-01 23:27:00,
2013-02-01 15:32:00,49.1,46.0,30.29,NW,306,4.0,4.0,89,0.00,OVC,,0.01,WeatherDisplay:10.37,2013-02-01 23:32:00,
2013-02-01 15:37:00,49.1,46.0,30.28,WNW,289,4.6,4.6,89,0.00,OVC,,0.01,WeatherDisplay:10.37,2013-02-01 23:37:00,
2013-02-01 15:42:00,49.0,45.9,30.29,WNW,301,4.6,4.6,89,0.00,OVC,,0.01,WeatherDisplay:10.37,2013-02-01 23:42:00,
2013-02-01 15:47:00,49.0,45.9,30.29,WNW,296,5.8,5.8,89,0.00,OVC,,0.01,WeatherDisplay:10.37,2013-02-01 23:47:00,
2013-02-01 15:52:00,48.9,45.8,30.29,WNW,286,5.8,5.8,89,0.00,OVC,,0.01,WeatherDisplay:10.37,2013-02-01 23:52:00,
2013-02-01 15:57:00,48.9,45.8,30.29,WNW,296,3.5,3.5,89,0.00,OVC,,0.01,WeatherDisplay:10.37,2013-02-01 23:57:00,
2013-02-01 16:02:00,48.8,45.7,30.29,WNW,296,5.0,5.0,89,0.00,OVC,,0.01,WeatherDisplay:10.37,2013-02-02 00:02:00,
2013-02-01 16:07:00,48.6,45.5,30.29,WNW,299,6.9,6.9,89,0.00,OVC,,0.01,WeatherDisplay:10.37,2013-02-02 00:07:00,
2013-02-01 16:12:00,48.5,45.4,30.29,NW,307,4.6,4.6,89,0.00,OVC,,0.01,WeatherDisplay:10.37,2013-02-02 00:12:00,
2013-02-01 16:17:00,48.4,45.3,30.29,WNW,292,4.6,4.6,89,0.00,OVC,,0.01,WeatherDisplay:10.37,2013-02-02 00:17:00,
2013-02-01 16:22:00,48.3,45.2,30.29,NW,305,5.8,5.8,89,0.00,OVC,,0.01,WeatherDisplay:10.37,2013-02-02 00:22:00,
2013-02-01 16:27:00,48.3,45.2,30.28,WNW,300,3.5,3.5,89,0.00,OVC,,0.01,WeatherDisplay:10.37,2013-02-02 00:27:00,
2013-02-01 16:32:00,48.1,45.3,30.28,WNW,302,6.9,6.9,90,0.00,OVC,,0.01,WeatherDisplay:10.37,2013-02-02 00:32:00,
2013-02-01 16:37:00,48.0,45.2,30.28,WNW,303,4.6,4.6,90,0.00,OVC,,0.01,WeatherDisplay:10.37,2013-02-02 00:37:00,
2013-02-01 16:42:00,47.8,45.0,30.28,WNW,299,3.5,3.5,90,0.00,OVC,,0.01,WeatherDisplay:10.37,2013-02-02 00:42:00,
2013-02-01 16:47:00,47.7,44.9,30.28,WNW,300,3.5,3.5,90,0.00,OVC,,0.01,WeatherDisplay:10.37,2013-02-02 00:47:00,
2013-02-01 16:52:00,47.6,44.8,30.28,WNW,300,3.5,3.5,90,0.00,OVC,,0.01,WeatherDisplay:10.37,2013-02-02 00:52:00,
2013-02-01 16:57:00,47.4,44.6,30.27,NNW,330,2.3,2.3,90,0.00,OVC,,0.01,WeatherDisplay:10.37,2013-02-02 00:57:00,
2013-02-01 17:02:00,47.2,44.4,30.27,WNW,300,3.5,3.5,90,0.00,OVC,,0.01,WeatherDisplay:10.37,2013-02-02 01:02:00,
2013-02-01 17:07:00,47.1,44.3,30.28,NW,304,4.0,4.0,90,0.00,OVC,,0.01,WeatherDisplay:10.37,2013-02-02 01:07:00,
2013-02-01 17:12:00,47.0,44.2,30.28,NW,314,3.5,3.5,90,0.00,OVC,,0.01,WeatherDisplay:10.37,2013-02-02 01:12:00,
2013-02-01 17:17:00,47.1,44.3,30.28,WNW,299,3.5,3.5,90,0.00,OVC,,0.01,WeatherDisplay:10.37,2013-02-02 01:17:00,
2013-02-01 17:22:00,47.1,44.3,30.28,North,5,3.5,3.5,90,0.00,OVC,,0.01,WeatherDisplay:10.37,2013-02-02 01:22:00,
2013-02-01 17:27:00,47.0,44.2,30.28,North,5,2.0,0.0,90,0.00,OVC,,0.01,WeatherDisplay:10.37,2013-02-02 01:27:00,
2013-02-01 17:32:00,46.8,44.0,30.28,WNW,288,3.0,3.0,90,0.00,OVC,,0.01,WeatherDisplay:10.37,2013-02-02 01:32:00,
2013-02-01 17:37:00,46.7,43.9,30.28,NW,304,3.0,3.0,90,0.00,OVC,,0.01,WeatherDisplay:10.37,2013-02-02 01:37:00,
2013-02-01 17:42:00,46.5,43.7,30.28,NW,312,3.5,3.5,90,0.00,OVC,,0.01,WeatherDisplay:10.37,2013-02-02 01:42:00,
2013-02-01 17:47:00,46.5,43.7,30.28,WNW,302,5.8,5.8,90,0.00,OVC,,0.01,WeatherDisplay:10.37,2013-02-02 01:47:00,
2013-02-01 17:52:00,46.5,43.7,30.28,WNW,302,4.6,4.6,90,0.00,OVC,,0.01,WeatherDisplay:10.37,2013-02-02 01:52:00,
2013-02-01 17:57:00,46.3,43.2,30.28,WNW,297,4.6,4.6,89,0.00,OVC,,0.01,WeatherDisplay:10.37,2013-02-02 01:57:00,
2013-02-01 18:02:00,46.1,43.3,30.28,North,355,3.5,3.5,90,0.00,OVC,,0.01,WeatherDisplay:10.37,2013-02-02 02:02:00,
2013-02-01 18:07:00,46.0,43.2,30.28,North,355,2.0,2.0,90,0.00,OVC,,0.01,WeatherDisplay:10.37,2013-02-02 02:07:00,
2013-02-01 18:12:00,45.9,43.4,30.28,NNW,331,0.0,0.0,91,0.00,OVC,,0.01,WeatherDisplay:10.37,2013-02-02 02:12:00,
2013-02-01 18:17:00,45.8,43.3,30.29,NNW,345,2.3,2.3,91,0.00,OVC,,0.01,WeatherDisplay:10.37,2013-02-02 02:17:00,
2013-02-01 18:22:00,45.5,43.0,30.29,North,360,2.3,2.3,91,0.00,OVC,,0.01,WeatherDisplay:10.37,2013-02-02 02:22:00,
2013-02-01 18:27:00,45.3,42.8,30.29,NW,310,3.0,3.0,91,0.00,OVC,,0.01,WeatherDisplay:10.37,2013-02-02 02:27:00,
2013-02-01 18:32:00,45.1,42.6,30.29,NNW,337,2.3,2.3,91,0.00,OVC,,0.01,WeatherDisplay:10.37,2013-02-02 02:32:00,
2013-02-01 18:37:00,45.0,42.5,30.29,NNE,17,3.5,3.5,91,0.00,OVC,,0.01,WeatherDisplay:10.37,2013-02-02 02:37:00,
2013-02-01 18:42:00,44.7,42.5,30.29,NNE,17,1.1,0.0,92,0.00,OVC,,0.01,WeatherDisplay:10.37,2013-02-02 02:42:00,
2013-02-01 18:47:00,44.7,42.5,30.29,NNE,17,2.3,2.3,92,0.00,OVC,,0.01,WeatherDisplay:10.37,2013-02-02 02:47:00,
2013-02-01 18:52:00,45.0,42.8,30.29,NNE,19,1.1,1.1,92,0.00,OVC,,0.01,WeatherDisplay:10.37,2013-02-02 02:52:00,
2013-02-01 18:57:00,45.1,42.9,30.30,NNE,19,2.3,2.3,92,0.00,OVC,,0.01,WeatherDisplay:10.37,2013-02-02 02:57:00,
2013-02-01 19:02:00,45.2,43.0,30.30,NE,40,3.0,3.0,92,0.00,OVC,,0.01,WeatherDisplay:10.37,2013-02-02 03:02:00,
2013-02-01 19:07:00,45.4,43.2,30.30,NE,52,0.0,0.0,92,0.00,OVC,,0.01,WeatherDisplay:10.37,2013-02-02 03:07:00,
2013-02-01 19:12:00,45.4,43.2,30.30,East,92,2.3,2.3,92,0.00,OVC,,0.01,WeatherDisplay:10.37,2013-02-02 03:12:00,
2013-02-01 19:17:00,45.5,43.3,30.30,East,94,0.0,0.0,92,0.00,OVC,,0.01,WeatherDisplay:10.37,2013-02-02 03:17:00,
2013-02-01 19:22:00,45.6,43.4,30.30,East,91,3.5,3.5,92,0.00,OVC,,0.01,WeatherDisplay:10.37,2013-02-02 03:22:00,
2013-02-01 19:27:00,45.8,43.3,30.30,East,91,2.3,2.3,91,0.00,OVC,,0.01,WeatherDisplay:10.37,2013-02-02 03:27:00,
2013-02-01 19:32:00,45.9,43.4,30.30,ENE,78,0.0,0.0,91,0.00,OVC,,0.01,WeatherDisplay:10.37,2013-02-02 03:32:00,
2013-02-01 19:37:00,46.0,43.5,30.30,ENE,78,0.0,0.0,91,0.00,OVC,,0.01,WeatherDisplay:10.37,2013-02-02 03:37:00,
2013-02-01 19:42:00,46.1,43.3,30.30,ENE,65,5.0,5.0,90,0.00,OVC,,0.01,WeatherDisplay:10.37,2013-02-02 03:42:00,
2013-02-01 19:47:00,46.3,43.5,30.30,ENE,78,1.1,1.1,90,0.00,OVC,,0.01,WeatherDisplay:10.37,2013-02-02 03:47:00,
2013-02-01 19:52:00,46.3,43.5,30.30,ENE,78,0.0,0.0,90,0.00,OVC,,0.01,WeatherDisplay:10.37,2013-02-02 03:52:00,
2013-02-01 19:57:00,46.2,43.4,30.30,ENE,78,0.0,0.0,90,0.00,OVC,,0.01,WeatherDisplay:10.37,2013-02-02 03:57:00,
2013-02-01 20:02:00,46.1,43.3,30.30,ENE,78,1.0,1.0,90,0.00,OVC,,0.01,WeatherDisplay:10.37,2013-02-02 04:02:00,
2013-02-01 20:07:00,45.8,42.7,30.30,ENE,78,1.1,1.1,89,0.00,OVC,,0.01,WeatherDisplay:10.37,2013-02-02 04:07:00,
2013-02-01 20:12:00,45.6,42.5,30.30,ENE,78,0.0,0.0,89,0.00,OVC,,0.01,WeatherDisplay:10.37,2013-02-02 04:12:00,
2013-02-01 20:17:00,45.5,42.4,30.30,WNW,299,3.5,3.5,89,0.00,OVC,,0.01,WeatherDisplay:10.37,2013-02-02 04:17:00,
2013-02-01 20:22:00,45.3,42.5,30.30,WNW,299,2.3,2.3,90,0.00,OVC,,0.01,WeatherDisplay:10.37,2013-02-02 04:22:00,
2013-02-01 20:27:00,45.2,42.4,30.31,WNW,299,0.0,0.0,90,0.00,OVC,,0.01,WeatherDisplay:10.37,2013-02-02 04:27:00,
2013-02-01 20:32:00,45.0,42.2,30.31,WNW,299,0.0,0.0,90,0.00,OVC,,0.01,WeatherDisplay:10.37,2013-02-02 04:32:00,
2013-02-01 20:37:00,44.9,42.1,30.30,WNW,299,0.0,0.0,90,0.00,OVC,,0.01,WeatherDisplay:10.37,2013-02-02 04:37:00,
2013-02-01 20:42:00,44.7,41.9,30.30,WNW,299,0.0,0.0,90,0.00,OVC,,0.01,WeatherDisplay:10.37,2013-02-02 04:42:00,
2013-02-01 20:47:00,44.5,41.7,30.30,WNW,299,2.3,2.3,90,0.00,OVC,,0.01,WeatherDisplay:10.37,2013-02-02 04:47:00,
2013-02-01 20:52:00,44.3,41.6,30.31,WNW,299,0.0,0.0,90,0.00,OVC,,0.01,WeatherDisplay:10.37,2013-02-02 04:52:00,
2013-02-01 20:57:00,44.2,41.5,30.31,WNW,299,0.0,0.0,90,0.00,OVC,,0.01,WeatherDisplay:10.37,2013-02-02 04:57:00,
2013-02-01 21:00:00,44.1,41.6,30.30,WNW,299,0.0,0.0,91,0.00,OVC,,0.01,WeatherDisplay:10.37,2013-02-02 05:00:00,
2013-02-01 21:01:00,44.1,41.6,30.30,WNW,299,0.0,0.0,91,0.00,OVC,,0.01,WeatherDisplay:10.37,2013-02-02 05:01:00,
2013-02-01 21:06:00,44.0,41.5,30.30,WNW,299,0.0,0.0,91,0.00,OVC,,0.01,WeatherDisplay:10.37,2013-02-02 05:06:00,
2013-02-01 21:11:00,43.9,41.4,30.30,WNW,299,1.1,0.0,91,0.00,OVC,,0.01,WeatherDisplay:10.37,2013-02-02 05:11:00,
2013-02-01 21:16:00,43.9,41.2,30.30,WNW,299,2.3,2.3,90,0.00,OVC,,0.01,WeatherDisplay:10.37,2013-02-02 05:16:00,
2013-02-01 21:21:00,43.8,41.1,30.30,NW,325,1.1,1.1,90,0.00,OVC,,0.01,WeatherDisplay:10.37,2013-02-02 05:21:00,
2013-02-01 21:26:00,43.8,40.8,30.30,NW,325,0.0,0.0,89,0.00,OVC,,0.01,WeatherDisplay:10.37,2013-02-02 05:26:00,
2013-02-01 21:31:00,43.8,40.5,30.30,NW,325,0.0,0.0,88,0.00,OVC,,0.01,WeatherDisplay:10.37,2013-02-02 05:31:00,
2013-02-01 21:36:00,43.8,39.9,30.30,NW,325,0.0,0.0,86,0.00,OVC,,0.01,WeatherDisplay:10.37,2013-02-02 05:36:00,
2013-02-01 21:41:00,43.8,39.9,30.30,NW,325,0.0,0.0,86,0.00,OVC,,0.01,WeatherDisplay:10.37,2013-02-02 05:41:00,
2013-02-01 21:46:00,43.8,39.9,30.30,NW,325,0.0,0.0,86,0.00,OVC,,0.01,WeatherDisplay:10.37,2013-02-02 05:46:00,
2013-02-01 21:51:00,43.7,40.1,30.30,NW,325,0.0,0.0,87,0.00,OVC,,0.01,WeatherDisplay:10.37,2013-02-02 05:51:00,
2013-02-01 21:56:00,43.6,40.0,30.30,NW,325,1.0,0.0,87,0.00,OVC,,0.01,WeatherDisplay:10.37,2013-02-02 05:56:00,
2013-02-01 22:01:00,43.5,40.2,30.30,East,82,1.1,1.1,88,0.00,OVC,,0.01,WeatherDisplay:10.37,2013-02-02 06:01:00,
2013-02-01 22:06:00,43.3,39.7,30.30,East,82,0.0,0.0,87,0.00,OVC,,0.01,WeatherDisplay:10.37,2013-02-02 06:06:00,
2013-02-01 22:11:00,43.2,39.3,30.30,East,82,0.0,0.0,86,0.00,OVC,,0.01,WeatherDisplay:10.37,2013-02-02 06:11:00,
2013-02-01 22:16:00,43.3,39.1,30.30,East,82,0.0,0.0,85,0.00,OVC,,0.01,WeatherDisplay:10.37,2013-02-02 06:16:00,
2013-02-01 22:21:00,43.4,39.2,30.30,East,82,0.0,0.0,85,0.00,OVC,,0.01,WeatherDisplay:10.37,2013-02-02 06:21:00,
2013-02-01 22:26:00,43.4,39.2,30.30,East,82,2.3,0.0,85,0.00,OVC,,0.01,WeatherDisplay:10.37,2013-02-02 06:26:00,
2013-02-01 22:31:00,43.4,39.8,30.30,East,82,0.0,0.0,87,0.00,OVC,,0.01,WeatherDisplay:10.37,2013-02-02 06:31:00,
2013-02-01 22:36:00,43.4,40.1,30.30,East,82,0.0,0.0,88,0.00,OVC,,0.01,WeatherDisplay:10.37,2013-02-02 06:36:00,
2013-02-01 22:41:00,43.3,40.0,30.30,East,82,0.0,0.0,88,0.00,OVC,,0.01,WeatherDisplay:10.37,2013-02-02 06:41:00,
2013-02-01 22:46:00,43.2,40.2,30.29,NNE,27,2.3,2.3,89,0.00,OVC,,0.01,WeatherDisplay:10.37,2013-02-02 06:46:00,
2013-02-01 22:51:00,43.1,40.1,30.29,ENE,66,0.0,0.6,89,0.00,OVC,,0.01,WeatherDisplay:10.37,2013-02-02 06:51:00,
2013-02-01 22:56:00,43.3,38.5,30.29,NNE,29,3.5,3.5,83,0.00,OVC,,0.01,WeatherDisplay:10.37,2013-02-02 06:56:00,
2013-02-01 23:01:00,43.5,39.3,30.29,ENE,69,0.0,0.0,85,0.00,OVC,,0.01,WeatherDisplay:10.37,2013-02-02 07:01:00,
2013-02-01 23:06:00,43.6,39.7,30.30,ENE,69,0.0,0.0,86,0.00,OVC,,0.01,WeatherDisplay:10.37,2013-02-02 07:06:00,
2013-02-01 23:11:00,43.6,39.7,30.30,ENE,69,0.0,0.0,86,0.00,OVC,,0.01,WeatherDisplay:10.37,2013-02-02 07:11:00,
2013-02-01 23:16:00,43.5,39.6,30.30,ENE,69,0.0,0.0,86,0.00,OVC,,0.01,WeatherDisplay:10.37,2013-02-02 07:16:00,
2013-02-01 23:21:00,43.3,39.4,30.30,ENE,69,0.0,0.0,86,0.00,OVC,,0.01,WeatherDisplay:10.37,2013-02-02 07:21:00,
2013-02-01 23:26:00,43.2,39.3,30.30,ENE,69,0.0,0.2,86,0.00,OVC,,0.01,WeatherDisplay:10.37,2013-02-02 07:26:00,
2013-02-01 23:31:00,42.9,39.3,30.30,ENE,65,0.0,0.0,87,0.00,OVC,,0.01,WeatherDisplay:10.37,2013-02-02 07:31:00,
2013-02-01 23:36:00,42.7,38.8,30.30,ENE,65,0.0,0.0,86,0.00,OVC,,0.01,WeatherDisplay:10.37,2013-02-02 07:36:00,
2013-02-01 23:41:00,42.5,38.6,30.30,ENE,65,2.3,2.3,86,0.00,OVC,,0.01,WeatherDisplay:10.37,2013-02-02 07:41:00,
2013-02-01 23:46:00,42.4,38.5,30.30,NW,314,2.3,2.3,86,0.00,OVC,,0.01,WeatherDisplay:10.37,2013-02-02 07:46:00,
2013-02-01 23:51:00,42.3,38.4,30.30,NW,314,0.0,0.0,86,0.00,OVC,,0.01,WeatherDisplay:10.37,2013-02-02 07:51:00,
2013-02-01 23:56:00,42.1,38.2,30.30,NW,314,1.1,0.0,86,0.00,OVC,,0.01,WeatherDisplay:10.37,2013-02-02 07:56:00,